Location: Basse Occidentale du Courleau
(48.3833°N, 4.8333°W)
Time: 19:57:34
(UTC+00:00)

Cosmos 2112 Rocket - Pass Details

Date: 05 July 2020
Orbit: 756 x 787 km, 74.0° (Epoch: 06 August)

Event Time Altitude Azimuth Distance (km) Brightness Sun altitude
Exits shadow 22:48:24 25° 167° (SSE) 1,544 5.0 -15.8°
Maximum altitude 22:51:13 49° 105° (ESE) 1,014 4.4 -16.0°
Drops below altitude 10° 22:56:22 10° 32° (NNE) 2,359 7.0 -16.3°
Sets 22:58:49 0° 27° (NNE) 3,291 7.9 -16.4°
